GFSGL_sfc_dewp_231.txt.gz
Dewpoint
58 58 58 58 58 59 59 60 59 59 57 56 56 56 57 57 58 57 56 56 55 54 53 52 51 49 48 47 46 46 44 43 41 39 35 35 34 32 32 30 29 27 32
52 58 59 59 59 59 59 60 60 60 61 59 57 56 56 57 57 57 56 56 55 54 53 53 52 51 49 49 47 46 46 45 44 42 33 33 33 32 32 29 27 26 29
46 48 47 48 50 57 59 60 60 60 60 59 59 57 56 56 57 57 57 56 56 55 54 53 52 52 51 50 49 48 47 46 44 44 34 33 32 33 32 31 29 29 29
41 41 42 43 44 46 47 49 50 54 57 58 59 58 57 57 57 56 56 56 56 55 55 54 53 52 52 51 49 48 47 46 45 44 37 33 33 32 32 30 29 30 30
37 38 39 40 41 41 42 43 44 45 46 48 49 52 56 57 56 56 56 55 55 55 54 54 53 51 47 50 51 48 47 46 46 43 39 34 33 31 31 31 31 32 30
34 35 35 37 37 37 38 40 41 41 42 43 44 44 44 46 42 42 43 48 51 51 51 51 50 42 44 44 45 47 47 46 44 41 37 35 33 33 33 32 31 28 26
33 33 33 34 34 35 36 37 37 37 38 39 39 40 40 42 41 41 39 41 42 43 43 42 41 40 38 41 41 41 41 42 44 39 37 36 35 33 32 32 32 31 28
30 31 32 32 33 33 34 34 35 36 36 36 37 37 37 39 39 39 38 39 39 39 39 39 39 40 38 37 38 38 38 39 41 40 40 38 37 35 34 34 33 27 24
28 30 30 31 32 32 32 33 33 34 34 34 34 35 35 35 38 38 38 36 35 36 36 36 36 37 37 38 35 35 34 34 38 40 40 40 39 37 37 33 30 28 22
27 28 29 30 31 31 32 32 33 33 33 33 33 34 34 34 36 37 37 35 34 35 35 35 34 35 37 38 36 34 35 33 33 33 35 37 37 36 35 35 31 29 24
27 28 28 29 30 31 31 31 32 32 33 32 32 32 33 33 34 36 37 35 34 34 34 34 33 35 37 38 38 34 34 33 35 33 32 31 32 32 30 30 30 30 28
26 27 27 28 29 30 31 31 32 32 31 30 30 30 30 32 33 34 35 36 37 34 34 33 33 35 36 38 37 36 36 33 32 30 29 28 28 28 29 29 28 27 26
25 25 26 26 28 29 30 30 30 29 28 28 28 28 28 29 30 32 34 36 36 34 33 34 36 35 36 36 37 36 33 32 30 29 27 27 27 27 25 24 24 24 23
21 23 25 26 26 28 28 29 29 29 27 27 27 26 27 27 28 31 33 34 34 34 33 33 34 34 35 33 33 34 32 32 30 28 27 27 26 26 24 25 23 22 20
21 23 23 24 26 27 28 28 28 28 27 26 26 25 25 25 27 30 34 35 35 34 33 32 32 31 30 30 30 30 31 31 29 28 27 26 25 24 23 24 23 22 18
21 21 23 24 25 26 25 25 27 27 26 26 26 25 25 26 28 29 30 30 30 35 33 31 30 30 29 28 28 28 29 29 28 28 27 26 25 23 22 23 24 22 19
16 17 23 24 24 25 25 24 21 22 23 23 24 24 25 25 25 25 26 25 25 24 23 27 30 29 25 28 27 28 28 29 29 28 28 27 25 24 23 23 23 22 19
17 12 23 24 24 23 24 23 22 20 17 14 18 21 21 22 22 22 21 18 13 15 16 18 19 23 26 27 28 27 28 27 26 26 25 24 24 23 23 22 22 20 17
24 14 15 24 24 23 23 22 20 17 15 11 12 17 14 18 19 18 17 8 8 9 10 12 15 18 20 22 24 25 26 25 25 24 24 23 23 23 22 21 20 18 16
23 19 9 22 21 21 22 21 19 14 8 7 9 14 10 7 6 6 7 7 7 7 8 8 10 15 17 19 19 21 21 21 21 21 21 21 21 21 19 18 17 16 14
22 22 15 21 14 2 19 19 18 14 0 -2 -0 14 17 0 1 3 5 6 6 6 7 8 9 10 14 17 18 18 17 17 17 17 17 17 17 15 15 15 14 12 11
20 12 3 5 17 3 1 -2 9 10 -2 -4 -4 -0 13 -2 -1 1 3 5 7 7 8 8 8 9 10 12 15 15 14 14 14 15 14 14 14 13 12 11 10 9 9
1 1 0 -1 -2 1 -1 -4 -4 -4 -5 -6 -7 -5 -6 -7 -6 -3 -1 3 5 6 7 7 7 8 9 9 11 13 12 12 13 14 13 12 11 10 10 8 8 7 6
-1 -1 -0 -2 -2 -4 -4 -4 -5 -3 -6 -7 -8 -7 -6 -7 -8 -6 -5 -2 1 2 5 6 7 6 8 8 9 12 12 12 13 12 12 10 9 9 8 8 7 6 6
-3 -3 -3 -2 -3 -3 -4 -5 -5 -8 -8 -6 -8 -6 -8 -8 -7 -8 -7 -5 -2 -1 1 3 5 6 6 6 6 7 10 11 11 11 11 10 8 7 7 6 5 4 3
-4 -4 -5 -6 -5 -6 -6 -5 -7 -7 -7 -8 -8 -9 -9 -9 -9 -10 -10 -7 -5 -3 -2 -1 2 3 5 8 9 9 10 11 9 9 8 8 7 6 5 3 2 1 1

GFSGL_sfc_dewp_234.txt.gz
Dewpoint
57 58 58 58 58 59 58 58 59 59 59 59 58 58 57 56 57 58 57 57 56 55 55 53 52 51 50 49 47 47 46 45 43 44 39 37 35 33 31 32 32 34 38
51 56 56 56 58 58 58 59 59 59 58 58 58 57 57 57 57 57 57 57 57 56 55 54 53 52 51 50 50 47 47 47 46 44 43 35 35 34 33 32 32 32 34
44 45 47 47 48 49 50 50 53 56 59 60 58 57 57 57 57 57 57 57 57 57 56 55 54 53 52 51 50 49 48 48 48 46 46 36 36 35 33 33 32 32 32
39 40 40 41 44 45 46 46 46 47 48 49 49 52 53 56 56 55 56 57 57 57 56 56 55 54 53 52 51 50 50 48 47 46 46 36 34 33 33 32 30 32 31
36 36 36 38 38 40 42 43 43 43 44 45 44 45 46 45 41 42 43 45 48 53 55 55 55 53 48 51 52 51 50 48 47 46 45 35 34 31 32 32 32 31 31
33 33 34 35 36 37 37 38 38 38 40 40 40 41 41 41 40 40 39 42 43 43 44 44 45 41 43 42 43 45 49 48 47 46 45 41 35 33 33 32 32 29 28
31 32 32 33 33 34 35 35 35 36 36 37 37 37 38 38 38 39 37 39 40 40 39 39 38 38 38 40 40 41 40 41 43 44 43 41 36 35 33 32 32 31 32
29 30 31 32 32 33 33 33 34 34 34 34 35 35 35 35 37 38 37 37 36 36 37 37 36 36 37 36 37 37 38 38 38 40 42 42 39 36 35 33 33 31 28
28 29 30 31 31 31 31 32 32 32 32 32 32 32 33 33 35 36 35 35 34 34 34 35 35 35 36 38 36 35 35 36 36 39 41 42 40 38 36 35 29 30 23
27 28 29 30 30 31 31 31 31 31 30 30 30 31 30 31 32 33 33 34 33 34 35 34 34 36 37 37 35 34 34 35 32 33 34 38 38 37 37 35 32 32 27
26 28 28 29 29 30 30 30 30 29 29 28 28 28 28 29 29 32 34 34 33 33 33 34 34 36 36 37 37 35 34 33 34 32 32 33 34 35 35 35 35 35 30
25 26 26 27 28 30 30 30 29 28 27 27 27 26 27 28 28 31 33 37 37 33 33 33 34 36 36 36 36 37 37 34 31 30 30 30 30 29 30 30 30 30 30
22 23 25 26 28 29 29 28 27 26 26 26 25 24 24 26 27 30 32 35 36 34 33 34 35 35 35 35 36 37 33 31 30 29 27 27 28 27 27 25 25 25 25
20 21 24 27 27 27 28 27 26 25 24 24 23 23 24 24 26 27 30 30 30 32 33 32 33 33 33 33 32 32 32 31 30 28 27 26 26 26 25 26 24 24 22
16 21 24 26 27 25 25 27 26 26 25 25 24 24 23 23 25 27 28 27 28 30 31 30 29 26 25 27 29 30 30 30 29 28 26 26 25 24 24 25 24 22 19
16 23 24 24 24 25 24 19 24 25 24 25 25 25 24 25 26 26 26 26 26 26 21 22 24 28 27 26 23 24 26 26 28 28 27 26 24 23 22 24 23 21 18
19 23 24 23 24 23 22 21 19 17 20 21 23 23 24 23 24 23 22 21 22 17 13 14 15 17 21 24 24 23 22 24 28 28 27 25 24 23 23 22 21 19 17
8 21 24 24 24 23 22 19 10 12 10 10 15 20 20 21 22 21 20 14 10 10 8 10 11 13 16 18 21 24 24 26 26 25 25 24 24 24 23 22 20 18 16
10 8 22 20 21 21 21 18 4 2 -0 -2 2 14 11 16 17 17 15 6 5 6 6 7 8 10 13 15 18 20 22 23 23 24 24 24 24 24 22 21 19 17 17
22 16 20 16 3 19 19 14 6 1 -4 -5 1 5 4 3 3 3 3 3 3 3 5 6 7 8 10 14 15 16 17 18 19 20 20 21 21 21 19 18 18 16 14
22 21 17 18 1 -3 3 15 12 -3 -7 -8 -7 7 16 -8 -7 -7 -3 1 2 2 4 6 7 7 8 10 13 13 15 16 16 16 17 18 18 16 17 16 15 13 12
20 14 1 10 8 -1 -4 -6 -4 -4 -8 -8 -8 -6 13 -8 -6 -6 -4 -3 -1 -0 1 2 6 7 8 8 10 13 13 13 14 15 15 15 15 15 15 13 13 11 10
-1 -1 -2 -4 -5 -3 -5 -9 -8 -9 -9 -11 -11 -9 -11 -12 -10 -8 -8 -7 -5 -3 -1 -1 2 6 8 9 11 11 11 11 13 15 14 13 13 12 11 10 10 9 8
-4 -3 -2 -4 -5 -6 -7 -7 -9 -7 -10 -10 -12 -12 -10 -12 -12 -11 -10 -11 -7 -6 -3 -2 -3 1 4 6 8 10 11 11 12 12 12 11 10 10 9 8 8 7 7
-4 -5 -5 -3 -5 -4 -7 -8 -8 -10 -10 -9 -10 -10 -11 -12 -11 -12 -11 -11 -12 -10 -6 -5 -5 -4 1 3 5 6 8 9 9 10 10 10 8 8 8 7 6 4 3
-5 -5 -5 -8 -8 -8 -7 -5 -7 -9 -8 -9 -10 -12 -11 -11 -12 -14 -14 -13 -12 -11 -9 -8 -7 -5 -1 1 4 10 11 11 8 8 7 7 6 5 5 4 3 3 2

GFSGL_sfc_dewp_237.txt.gz
Dewpoint
46 49 55 57 58 58 58 59 59 59 58 59 59 58 57 57 57 57 56 56 56 55 55 54 53 52 51 50 50 48 47 47 45 46 47 41 36 35 33 34 33 33 36
43 49 54 53 56 57 58 58 59 59 59 59 59 58 58 57 57 57 57 57 57 56 56 55 54 53 52 52 51 50 49 48 47 46 47 43 37 35 35 33 33 32 34
40 42 43 45 46 46 47 47 48 49 49 51 53 57 57 57 57 57 57 57 57 57 57 57 56 55 53 53 52 51 50 49 49 48 47 48 41 36 35 33 34 33 35
37 39 39 39 40 42 43 44 45 46 46 47 46 47 44 43 43 44 46 47 48 50 52 54 56 55 54 53 52 51 51 50 48 47 47 46 36 33 35 34 32 33 34
36 36 37 37 37 37 38 39 40 41 42 42 43 43 42 40 39 40 40 44 44 45 45 45 46 41 39 42 46 47 49 49 48 46 45 44 33 32 34 33 33 32 32
34 35 34 35 35 35 36 36 37 37 37 38 38 39 38 37 38 38 38 40 40 40 40 40 41 38 40 40 40 41 43 42 43 45 45 44 40 35 34 33 33 30 28
30 31 32 32 33 33 34 34 34 34 35 35 35 35 36 35 36 36 36 37 37 37 37 37 36 36 35 36 37 38 38 39 42 42 41 42 38 36 34 33 33 33 32
29 30 31 31 31 32 32 32 32 32 32 32 32 32 33 32 34 34 35 34 35 34 35 35 35 35 35 35 35 35 35 36 36 38 39 40 41 38 36 35 34 32 29
28 29 30 31 31 31 30 30 30 29 29 29 30 30 29 30 33 34 34 33 33 33 33 34 34 34 36 37 35 34 34 35 36 38 39 40 41 40 37 34 31 30 24
27 28 29 30 30 29 29 29 29 28 28 28 28 28 28 29 31 33 35 34 33 33 33 34 34 36 36 37 35 34 33 34 34 34 34 35 39 38 37 35 32 32 24
26 27 27 29 29 29 29 28 28 27 27 26 26 26 27 27 28 31 33 32 34 33 33 33 33 35 36 37 37 34 34 35 34 33 32 32 33 33 35 34 33 34 28
23 25 26 27 28 29 28 27 26 26 25 24 24 24 25 26 28 29 31 31 31 30 31 31 32 34 35 35 35 37 37 34 32 31 30 30 29 30 31 32 32 31 31
19 21 25 25 27 27 26 25 25 25 24 23 23 23 23 25 26 28 28 29 29 30 30 31 33 33 33 32 33 34 32 31 30 29 27 26 26 26 27 26 26 27 29
14 24 26 26 23 24 26 25 24 24 24 23 23 22 22 23 24 25 26 26 26 27 28 28 29 30 29 28 27 28 30 28 29 27 24 23 25 26 25 27 24 24 22
23 24 25 25 25 21 22 25 25 25 24 23 23 23 22 21 23 25 25 24 23 24 19 19 19 22 25 25 25 22 22 22 25 24 23 22 23 24 23 25 24 23 20
23 24 24 24 24 23 21 18 22 24 23 24 24 24 23 24 25 25 24 24 23 22 12 12 13 15 18 21 24 23 19 19 20 23 22 23 22 23 22 22 22 21 18
22 24 23 23 23 22 21 13 9 13 19 19 22 21 23 22 23 23 22 20 20 14 9 8 9 10 13 15 18 21 21 23 21 23 23 23 23 24 22 20 20 19 17
19 22 23 23 23 22 19 5 1 1 -0 2 11 18 19 21 21 21 19 13 8 9 4 5 6 7 10 13 14 17 19 20 20 22 22 23 24 24 22 20 19 17 17
10 20 23 21 22 21 19 5 -2 -4 -6 -6 -2 12 9 16 16 16 14 0 -4 2 4 4 6 6 7 10 13 14 15 17 18 21 22 23 22 22 19 19 18 18 17
21 18 21 8 15 20 15 2 -1 -6 -8 -10 -7 -1 -4 -2 -3 -1 -3 -4 -1 -1 1 3 5 5 6 8 11 12 12 13 14 16 18 19 20 20 18 18 17 15 13
22 21 19 6 1 -4 -2 2 -3 -8 -9 -10 -9 -3 15 -11 -13 -13 -12 -5 -5 -2 -0 1 3 4 5 6 8 10 9 11 12 12 14 16 17 16 17 16 14 13 12
21 20 14 18 2 -4 -5 -8 -6 -7 -10 -10 -9 -8 12 -12 -14 -13 -13 -12 -11 -9 -5 -5 0 4 5 5 5 6 6 8 11 12 12 12 14 15 15 14 13 12 11
12 3 -3 -6 -5 -4 -7 -10 -8 -10 -10 -12 -13 -11 -13 -14 -14 -14 -15 -15 -15 -11 -7 -6 -5 -2 1 2 3 1 -1 2 7 9 12 12 11 11 11 11 10 9 8
2 2 2 -5 -7 -7 -7 -7 -9 -7 -9 -10 -12 -13 -11 -13 -14 -13 -14 -16 -14 -14 -12 -10 -7 -7 -3 -2 -1 -1 -2 -2 -2 -0 4 8 9 9 8 7 7 8 7
2 0 0 2 0 1 -2 -4 -3 -5 -5 -6 -8 -11 -12 -13 -12 -13 -15 -15 -16 -15 -12 -11 -10 -7 -5 -1 0 1 2 3 4 4 3 6 5 5 6 7 5 4 3
2 2 3 -2 -2 -2 -0 1 1 -1 -2 -2 -4 -5 -7 -9 -9 -12 -14 -15 -14 -14 -14 -14 -13 -8 -4 -2 1 7 6 8 0 2 -2 -1 3 3 4 3 2 2 2

GFSGL_sfc_dewp_240.txt.gz
Dewpoint
39 42 46 50 53 57 58 59 59 59 58 58 58 57 57 57 57 57 57 57 56 56 56 54 54 53 53 52 51 49 49 48 47 48 49 49 39 37 35 35 35 34 35
38 41 43 48 52 52 53 52 53 53 55 58 58 58 58 57 57 57 57 57 56 56 56 56 55 54 54 53 53 51 50 50 49 48 49 49 46 40 40 36 35 36 36
37 39 40 41 45 45 46 46 47 48 47 48 48 46 45 45 46 47 48 48 48 49 51 53 54 55 54 54 54 53 52 51 51 49 49 50 49 37 36 36 36 36 36
35 36 37 39 40 41 41 42 42 42 43 44 44 42 41 40 40 41 43 45 46 46 46 46 46 45 43 44 45 48 51 51 50 48 47 47 44 35 36 34 33 35 34
33 34 35 37 39 38 39 39 38 39 39 40 40 39 38 37 36 37 38 41 40 41 41 41 41 38 37 39 41 41 42 43 45 46 46 45 38 32 34 35 37 33 33
31 31 34 35 36 36 38 35 35 36 35 36 37 36 34 34 36 36 36 36 37 36 36 36 37 36 37 37 38 38 39 39 39 39 41 41 41 35 34 34 33 31 29
30 31 32 33 32 33 32 33 32 32 32 32 32 33 32 33 35 36 35 34 35 34 34 35 34 35 34 35 36 36 36 37 39 39 37 38 38 37 35 34 34 33 33
29 29 30 31 30 30 29 29 29 29 29 29 29 30 30 31 35 36 35 33 33 33 34 34 34 34 35 35 35 34 34 35 35 36 36 37 37 38 37 36 35 34 30
27 28 29 30 29 29 28 28 28 28 28 28 28 28 28 29 32 33 33 34 33 33 33 33 33 34 35 36 35 34 34 34 35 37 37 38 38 39 39 34 33 31 26
27 28 28 29 29 28 27 28 27 27 26 26 26 27 27 27 30 31 31 29 29 31 31 31 32 32 33 34 33 33 32 33 34 34 34 33 34 34 37 37 34 32 25
25 27 27 28 29 28 27 27 27 26 25 25 25 25 26 26 27 30 31 28 29 29 30 30 31 32 33 33 33 32 32 33 33 32 31 30 31 33 33 33 33 34 28
23 24 25 26 27 27 26 26 25 24 24 23 23 23 24 25 27 28 29 29 29 29 28 30 29 31 31 31 31 32 33 31 29 29 25 24 25 27 28 30 31 31 31
21 26 25 23 25 26 24 25 24 23 23 23 22 21 22 23 24 27 27 28 27 26 25 26 27 28 29 28 29 30 28 28 27 23 20 18 19 23 27 27 27 26 25
24 24 26 25 20 22 25 24 24 23 22 22 22 21 22 22 23 24 24 24 24 23 21 20 21 23 24 25 24 25 24 23 22 22 18 19 21 21 24 26 24 24 22
24 24 25 25 24 18 20 21 23 25 25 23 23 23 22 21 23 25 24 24 21 21 12 11 14 14 15 17 19 21 22 23 23 21 17 19 19 20 22 24 24 23 20
23 24 24 23 23 20 16 15 21 23 23 23 23 23 24 24 24 24 23 23 22 20 4 6 8 9 11 12 14 17 20 22 23 22 17 18 20 20 19 20 22 20 18
23 23 23 23 22 16 9 6 5 11 19 20 22 22 22 22 22 22 21 19 20 13 5 5 5 6 8 10 12 13 16 17 18 19 16 19 22 21 20 19 19 19 18
21 23 23 23 23 22 7 0 -3 -1 -1 3 12 18 20 20 21 20 18 10 2 6 -1 0 3 4 6 8 10 12 12 14 16 18 20 21 22 21 19 18 18 18 17
19 21 23 22 22 21 20 -1 -5 -6 -8 -9 -6 9 4 15 16 16 13 -3 -12 -8 -5 -1 1 3 4 6 8 9 8 10 11 13 16 18 20 19 17 18 17 16 16
20 20 21 16 19 20 17 -1 -5 -8 -9 -11 -10 0 -3 -2 -4 -5 -10 -13 -12 -11 -9 -5 -1 -1 2 3 5 7 7 9 9 9 11 14 17 18 17 16 16 13 12
22 21 20 15 0 6 -2 -2 -6 -10 -9 -11 -10 -7 15 -10 -13 -16 -15 -13 -15 -13 -11 -9 -4 -2 -1 -1 2 5 5 4 6 5 7 10 13 14 15 14 13 13 13
22 22 18 19 9 -7 -6 -7 -7 -8 -10 -9 -9 -11 11 -13 -15 -15 -15 -15 -16 -17 -16 -15 -13 -9 -4 -3 -0 0 -0 3 5 4 5 6 7 11 13 13 12 12 11
21 20 15 13 13 -4 -8 -11 -10 -10 -9 -12 -12 -11 -13 -13 -15 -15 -15 -16 -16 -15 -15 -16 -14 -9 -7 -7 -8 -8 -4 3 2 -1 -2 1 2 2 7 10 10 8 7
14 13 8 4 -0 -0 1 -1 -5 -6 -9 -9 -13 -13 -10 -12 -12 -11 -14 -16 -17 -17 -17 -17 -15 -13 -10 -7 -8 -10 -9 -6 -9 -5 -5 -1 -0 -0 5 8 8 7 7
8 7 7 8 5 6 3 1 -1 -3 -4 -4 -5 -10 -11 -11 -12 -12 -15 -16 -17 -16 -13 -13 -13 -12 -11 -7 -2 -0 -2 -2 -5 -3 -7 -5 -4 -4 -4 -2 0 1 -1
8 9 10 7 5 4 4 5 4 1 -0 -0 -2 -3 -7 -8 -7 -10 -13 -16 -14 -14 -14 -15 -13 -11 -9 -9 -7 6 7 8 -1 -2 -10 -9 -7 -7 -8 -6 -5 -6 -5

GFSGL_sfc_dewp_246.txt.gz
Dewpoint
36 38 40 42 44 47 51 50 53 58 58 58 58 58 58 58 58 58 58 58 57 56 56 56 55 54 54 54 53 52 51 51 48 49 50 52 52 50 46 43 43 44 43
35 37 38 40 42 44 46 48 54 51 50 50 49 48 46 46 47 49 50 51 51 50 49 49 46 46 45 44 45 46 49 50 50 48 50 50 51 52 52 50 43 42 42
34 35 36 37 38 40 41 43 45 45 43 43 41 40 39 40 41 43 45 45 45 44 43 41 41 41 40 41 42 42 42 42 43 43 43 45 45 44 43 41 40 40 41
33 33 34 34 35 36 38 38 40 40 39 38 37 37 37 37 38 40 40 40 40 39 40 39 38 38 38 38 38 39 39 40 40 40 40 41 41 41 38 37 39 37 38
32 33 33 33 33 33 34 35 36 36 36 36 36 36 36 36 36 38 37 37 37 37 37 37 37 34 35 36 36 36 37 37 36 36 36 37 37 37 37 38 37 38 37
31 32 32 32 32 32 32 32 33 33 33 33 34 35 34 35 36 36 36 36 35 35 35 36 35 34 35 36 36 36 36 35 35 35 35 33 33 34 34 35 34 34 34
30 31 32 32 32 32 31 30 30 32 33 32 32 32 32 32 34 34 35 34 34 34 33 33 32 32 34 34 34 34 34 35 34 34 34 34 33 34 33 32 34 33 33
29 30 30 29 30 32 31 29 28 29 29 29 29 30 31 31 32 32 32 32 32 32 32 32 32 32 32 33 32 32 32 32 32 32 33 33 32 32 32 32 33 33 35
28 29 30 30 29 29 28 28 28 27 28 28 28 29 30 30 31 31 30 31 30 31 30 31 31 31 32 31 31 30 32 32 31 31 31 31 30 30 30 31 31 30 31
27 28 28 29 28 27 28 27 27 26 25 26 26 27 28 29 30 31 29 29 29 29 29 29 29 30 30 30 29 30 29 29 29 30 31 29 29 29 29 29 29 27 30
27 27 28 27 27 27 27 27 26 26 26 26 26 26 27 27 28 30 30 27 27 28 27 27 28 29 29 29 29 29 28 28 29 29 31 30 30 30 29 28 29 28 27
27 26 27 28 27 27 27 27 27 27 26 26 26 25 25 27 27 28 28 27 26 27 26 26 27 26 26 27 27 27 28 27 28 27 27 28 28 28 29 29 30 29 29
27 25 25 26 27 27 28 27 26 26 26 25 24 25 24 26 27 27 27 26 24 23 23 23 23 24 24 23 25 25 25 27 26 25 25 26 27 28 29 28 31 30 32
26 26 26 26 26 27 27 26 27 25 25 25 24 24 24 25 25 26 26 26 24 22 21 22 21 22 23 23 23 24 24 25 25 24 25 26 28 28 27 26 25 27 26
26 26 26 26 25 25 25 26 26 26 26 26 25 25 25 24 25 24 25 25 25 21 19 23 22 22 22 22 23 23 23 23 23 23 24 25 26 26 25 25 25 25 23
26 26 26 25 24 22 24 24 24 25 24 24 24 24 24 22 22 22 22 22 20 18 20 21 20 20 19 19 20 21 22 21 21 23 24 24 24 24 23 24 24 23 22
27 27 25 25 24 22 21 23 22 22 22 22 21 21 21 21 22 21 20 19 20 18 19 18 17 17 18 18 19 19 20 20 21 22 23 23 23 23 23 23 23 22 21
27 26 26 26 25 22 21 21 22 23 22 20 16 18 19 19 20 19 17 16 19 16 14 15 15 16 16 17 18 18 19 20 20 21 21 22 22 22 22 21 20 19 20
27 26 26 26 26 25 21 18 19 18 19 20 17 17 13 17 16 15 15 17 16 14 13 14 13 14 15 16 16 18 18 18 18 20 20 20 21 21 20 20 19 15 17
25 25 26 26 25 25 23 20 18 18 18 17 18 19 17 12 18 16 13 14 14 13 13 13 13 13 14 15 16 17 20 19 19 20 19 20 21 20 19 18 18 18 18
25 25 25 25 25 24 24 21 20 19 18 18 18 17 14 15 17 16 13 12 13 12 12 12 12 12 13 13 15 18 18 19 18 18 19 19 19 19 19 19 19 18 18
26 25 25 25 23 22 23 23 19 18 18 17 17 14 18 13 13 13 12 11 10 9 8 8 10 11 10 10 11 14 16 17 18 18 18 17 19 19 19 18 18 18 17
26 25 24 24 23 20 18 18 17 17 17 16 16 14 12 14 13 12 11 11 8 7 7 6 8 8 10 9 10 10 12 14 14 13 17 18 19 20 19 18 16 14 13
26 26 25 24 23 21 18 17 16 14 16 16 14 13 13 13 12 12 11 9 7 7 6 5 5 6 7 8 12 13 11 10 11 11 11 16 17 15 17 15 14 10 11
25 25 26 25 23 21 19 18 17 16 15 15 14 13 12 11 10 11 11 9 6 5 5 4 5 5 5 4 7 8 10 7 6 6 11 12 13 12 12 13 12 10 8
23 24 25 24 21 19 18 18 18 17 16 16 15 14 13 12 11 11 11 9 7 6 5 5 4 2 2 4 6 7 7 13 10 3 9 11 11 11 11 10 7 9 8